Lapse_Rate
6.2 6.2 6.3 6.1 6.0 6.0 6.2 6.0 5.9 5.8 5.9 5.9 5.9 5.8 5.8 5.8 5.8 5.7 5.2 5.8 5.8 5.9 6.1 6.2 6.1 6.2 6.5 6.8 6.7 6.5 6.4 6.4 6.2 6.2 6.1 6.0 5.9 5.9 5.8 5.8 5.9 5.9 5.9
6.4 6.3 6.0 6.2 6.1 6.1 6.0 6.0 5.9 6.0 5.8 5.8 5.8 5.9 5.8 5.7 5.8 5.7 5.6 5.5 5.6 5.8 5.9 6.2 6.1 6.2 6.3 6.5 6.8 6.6 6.4 6.3 6.3 6.3 6.3 6.1 6.0 5.9 5.8 6.0 5.9 5.9 5.9
6.4 6.2 6.0 6.1 5.9 6.1 6.2 6.1 6.0 6.1 6.1 6.1 6.0 5.8 6.0 6.2 6.1 6.2 5.9 5.8 5.4 5.8 5.6 5.9 6.2 6.2 6.2 6.2 6.4 6.6 6.6 6.4 6.3 6.1 6.2 6.2 6.1 6.0 5.9 5.9 6.0 6.0 5.9
6.3 6.2 6.2 6.0 6.0 6.0 6.2 6.1 6.1 6.0 6.2 6.2 6.4 6.3 6.3 6.3 6.3 6.3 6.2 6.2 6.0 5.7 5.9 5.7 5.8 6.0 6.0 6.2 6.1 6.3 6.5 6.4 6.4 6.3 6.1 6.1 6.1 6.1 6.1 6.0 6.0 6.0 6.0
6.1 6.1 5.9 5.9 6.1 6.1 6.1 6.3 6.3 6.5 6.3 6.3 6.2 6.4 6.5 6.5 6.3 6.3 6.2 6.1 6.1 6.1 6.0 6.0 5.7 5.6 5.8 6.1 6.2 6.2 6.3 6.4 6.3 6.4 6.4 6.3 6.2 6.1 6.2 6.2 6.1 6.1 6.2
6.0 6.1 6.1 6.1 6.0 6.2 6.1 6.1 6.4 6.5 6.6 6.5 6.3 6.2 6.3 6.3 6.3 6.1 6.2 6.2 6.2 6.1 6.0 6.1 6.0 6.0 5.9 5.8 6.0 6.0 6.2 6.3 6.4 6.4 6.4 6.3 6.2 6.1 6.1 6.3 6.3 6.1 6.2
6.1 6.0 6.0 6.0 6.1 6.2 6.3 6.4 6.5 6.5 6.4 6.6 6.4 6.1 6.2 6.2 6.2 6.2 6.1 6.0 6.0 6.0 5.9 6.0 6.1 6.1 6.1 6.0 6.1 5.9 6.1 6.2 6.4 6.4 6.4 6.2 6.2 6.1 6.1 6.0 6.3 6.4 6.2
6.3 6.3 6.2 6.1 6.3 6.5 6.5 6.4 6.3 6.2 6.2 6.2 6.2 6.0 5.6 5.8 6.2 6.1 6.2 6.2 6.0 5.9 5.9 5.9 5.9 6.0 6.0 6.1 6.0 5.8 5.9 6.2 6.3 6.4 6.3 6.4 6.2 6.0 6.2 6.2 6.1 6.2 6.4
6.4 5.9 6.1 6.4 6.3 6.4 6.3 6.1 5.9 5.9 5.9 5.8 6.0 6.1 5.7 4.8 5.9 6.1 6.0 6.0 5.9 6.0 5.9 5.7 5.9 5.7 5.8 5.9 5.9 5.9 5.9 6.0 6.0 6.1 6.2 6.3 5.9 6.0 5.9 6.1 6.1 6.1 6.2
6.5 6.5 6.5 6.4 6.5 6.6 6.5 6.4 6.2 6.0 5.8 5.8 5.9 6.0 6.0 5.9 5.8 4.7 5.7 5.8 5.8 6.0 5.7 5.7 5.6 5.7 5.7 5.9 6.0 6.0 5.9 5.8 5.8 5.9 6.0 6.1 6.3 6.0 6.0 6.1 6.2 6.1 6.1
6.4 6.5 6.5 6.5 6.6 6.6 6.7 6.6 6.5 6.3 6.1 5.8 5.9 5.8 5.7 5.8 5.8 5.7 4.7 4.4 5.4 5.8 5.8 5.7 5.6 5.7 5.8 5.7 5.9 6.0 6.0 5.9 5.7 5.7 5.8 5.9 6.1 5.9 5.9 6.0 6.2 6.2 6.1
6.6 6.7 6.5 6.6 6.5 6.5 6.6 6.6 6.6 6.5 6.3 6.1 5.9 5.9 5.8 5.6 5.5 5.5 5.4 5.2 5.4 5.4 5.7 5.6 5.4 5.4 5.4 5.6 5.7 5.9 6.1 6.1 5.9 5.7 5.6 5.7 5.9 5.9 6.0 6.0 6.0 6.1 6.1
6.2 6.4 6.5 6.6 6.6 6.5 6.5 6.6 6.6 6.4 6.2 6.1 6.0 5.8 5.8 5.7 5.7 5.3 5.4 5.5 5.3 5.3 5.2 5.3 5.5 5.5 5.6 5.5 5.7 5.7 5.5 5.7 6.1 6.1 6.0 5.8 5.9 5.9 6.0 5.9 6.1 6.3 6.1
6.0 6.1 6.0 6.1 6.4 6.5 6.6 6.7 6.6 6.4 6.3 6.2 6.0 6.0 6.0 5.9 5.8 5.7 5.5 5.4 5.3 4.8 4.0 4.9 5.1 5.0 5.0 5.0 4.9 5.2 5.5 5.7 5.7 5.9 6.0 5.9 5.7 5.7 5.9 6.0 6.1 6.4 6.2
6.3 6.4 6.6 6.5 6.4 6.4 6.4 6.5 6.8 6.4 6.2 6.1 6.0 5.9 5.7 5.8 5.9 5.8 5.5 5.3 5.2 4.9 3.8 3.7 4.5 4.7 4.2 4.1 4.2 4.8 5.3 5.7 5.9 5.9 5.9 5.8 5.7 5.6 5.5 5.7 6.0 6.2 6.3
6.7 6.6 6.5 6.7 6.7 6.5 6.4 6.6 6.8 6.7 6.5 6.2 6.0 5.7 5.6 5.6 5.6 5.6 5.2 5.2 5.1 5.1 5.1 4.2 4.6 5.0 5.2 4.7 4.7 4.6 4.7 5.1 5.9 6.1 5.8 5.5 5.6 5.6 5.5 5.5 5.6 5.9 6.1
6.7 7.1 6.8 6.2 6.6 6.4 6.5 6.4 6.7 6.7 6.5 6.4 6.3 6.1 5.9 5.6 5.6 5.3 4.7 4.8 5.1 5.0 5.4 5.3 4.7 4.8 5.2 5.5 5.0 5.0 5.4 5.6 5.9 6.1 6.2 6.1 6.0 5.9 5.8 5.7 5.6 5.8 5.8
6.4 6.5 6.5 5.7 5.7 5.9 6.5 6.5 6.6 6.2 6.0 6.1 6.2 5.9 6.0 5.8 5.5 5.2 5.2 5.1 4.8 4.5 4.5 5.1 5.4 5.4 5.5 5.2 5.2 5.1 5.5 5.8 6.0 6.2 6.4 6.4 6.2 6.1 5.9 6.0 5.9 5.8 5.8
6.7 6.5 6.5 6.1 5.1 4.7 6.1 6.1 6.3 6.4 6.1 5.6 5.9 5.7 6.0 5.7 5.2 5.4 5.4 5.1 5.0 5.0 4.8 4.8 5.2 5.6 5.6 5.3 4.9 5.2 5.5 5.9 6.1 6.3 6.4 6.2 6.5 6.4 6.4 6.5 6.4 6.1 6.0
6.7 6.8 6.8 6.7 5.9 5.9 5.9 6.1 6.3 6.3 5.9 5.7 5.5 5.4 5.6 5.7 5.5 5.2 5.4 5.6 5.5 5.3 5.1 4.7 4.7 5.2 5.4 5.6 4.9 5.4 5.1 5.2 6.0 6.5 6.8 6.7 6.7 6.7 6.7 6.6 6.4 6.1 6.2
7.3 6.5 6.4 6.6 5.8 5.6 5.7 5.8 5.9 5.7 5.4 5.4 5.6 5.3 5.4 5.6 5.5 5.3 5.6 5.3 5.0 5.0 5.1 4.6 4.8 5.1 5.1 5.0 5.5 5.5 5.7 6.0 6.3 6.4 6.7 6.7 6.9 7.2 7.0 6.9 7.0 6.8 6.5
7.3 6.5 6.5 6.6 6.0 5.4 5.4 5.4 5.6 5.3 5.4 5.5 5.6 5.4 5.2 5.3 5.2 5.0 5.2 5.2 5.0 5.1 5.2 5.2 5.4 5.5 5.5 5.5 5.8 6.0 6.3 6.0 6.2 6.4 6.5 6.6 6.8 7.1 6.8 6.8 6.8 6.4 6.3
7.3 6.9 6.6 6.4 6.4 6.0 6.1 5.4 5.5 5.3 5.1 5.1 5.3 5.2 5.0 5.2 5.4 5.3 5.2 4.9 5.5 5.4 5.2 5.1 5.1 5.2 5.3 5.5 6.0 6.2 6.4 6.2 6.1 6.3 6.4 6.8 6.8 6.7 6.6 6.8 7.1 6.4 6.0
7.4 7.1 6.9 6.5 6.5 6.2 6.2 5.5 5.7 5.2 5.2 5.4 5.4 4.9 4.9 5.2 5.5 5.5 5.5 5.4 5.5 5.4 5.5 5.4 5.2 5.1 5.3 5.5 5.6 5.9 6.2 6.2 6.4 6.4 6.4 6.9 5.9 6.1 6.4 6.6 5.8 5.0 5.0
7.5 7.4 6.8 6.6 6.6 6.6 6.3 6.1 5.8 5.6 5.7 5.3 5.1 4.9 5.0 5.1 5.3 5.1 5.4 5.3 5.5 5.6 5.3 5.5 5.8 5.5 5.3 5.6 5.7 5.9 6.0 6.1 6.2 6.2 6.5 5.4 5.3 6.3 5.8 5.3 5.6 5.0 4.7
7.2 7.2 6.8 6.8 6.7 6.6 6.1 5.8 5.7 5.7 5.5 5.1 5.0 4.8 5.1 5.0 5.0 5.1 5.1 5.3 5.6 5.5 5.5 5.7 5.6 5.6 5.8 6.2 6.1 6.1 6.0 6.0 5.4 6.0 6.3 5.0 5.8 6.0 5.4 6.0 5.3 5.1 5.1
Wind_Speed
4 5 4 5 4 7 5 3 5 6 8 7 6 5 7 5 6 8 4 8 7 10 12 15 14 16 16 14 15 16 15 14 14 14 13 10 13 12 11 11 10 8 8
7 2 8 7 4 6 5 4 5 6 5 7 6 4 5 6 4 6 11 2 8 9 13 15 15 16 16 17 16 15 16 18 17 16 15 14 14 14 14 13 12 11 10
11 8 8 6 7 5 7 3 7 6 5 5 5 4 6 3 7 6 8 11 6 14 11 14 16 16 18 17 17 18 18 16 16 19 17 17 14 17 15 14 15 14 12
11 9 5 6 8 7 5 4 4 5 5 5 5 6 5 6 6 8 9 7 10 9 14 15 13 14 16 18 18 18 18 18 19 18 19 18 18 17 17 17 16 16 14
9 8 7 9 7 7 6 4 4 4 6 6 6 5 4 4 4 4 3 3 3 6 8 14 9 9 12 17 18 17 17 19 19 18 20 20 21 20 19 18 17 16 16
10 7 7 7 5 5 5 2 4 7 5 4 6 5 4 3 2 1 4 1 4 3 3 2 5 11 7 3 13 15 15 16 19 21 21 20 20 21 22 21 20 19 18
12 9 8 6 6 7 2 1 4 3 6 4 6 2 2 4 1 1 2 3 3 2 3 4 4 3 8 7 8 5 3 7 18 18 21 23 23 23 22 23 23 21 20
10 9 7 4 3 2 2 2 3 5 3 3 4 4 2 5 4 1 1 2 3 2 2 4 5 5 3 6 7 8 7 7 7 2 9 16 21 24 24 24 24 24 23
9 7 5 5 3 4 2 2 2 2 4 2 3 4 2 2 3 4 3 3 2 3 4 4 7 7 6 6 2 8 10 9 6 5 6 7 6 9 14 24 25 24 24
6 5 6 5 4 3 2 1 1 4 3 3 1 1 3 5 4 2 5 3 2 2 3 3 5 6 4 4 6 8 6 7 8 8 7 6 7 8 11 11 13 23 24
8 8 7 6 4 4 3 2 2 1 2 4 2 2 1 2 0 4 3 1 1 3 2 1 2 1 2 3 4 7 6 6 6 6 7 8 7 8 12 13 15 16 17
7 8 10 8 7 4 4 3 2 3 3 3 4 2 3 2 2 4 5 4 3 2 3 3 3 2 2 2 1 1 1 3 5 6 8 9 8 9 9 12 14 17 19
6 7 7 7 7 6 4 3 4 3 3 5 3 5 3 4 2 5 6 6 5 4 4 4 2 4 4 5 4 3 6 6 5 5 7 8 11 12 11 11 12 15 17
6 8 8 8 7 8 7 6 5 6 5 5 6 6 6 5 4 4 6 7 7 7 4 4 4 5 6 7 9 7 14 8 6 10 11 10 10 11 13 14 14 14 16
6 8 9 8 8 8 7 7 7 6 6 6 6 6 7 7 6 5 6 6 7 8 8 7 4 4 8 10 10 13 14 11 8 15 16 14 14 14 15 16 17 17 17
10 11 10 9 9 8 8 9 7 8 7 6 6 6 7 8 6 6 7 6 7 8 10 8 8 8 7 11 13 15 16 14 21 22 18 19 18 17 17 19 20 20 20
10 10 11 8 8 10 10 10 9 8 8 8 8 8 9 9 8 8 5 7 8 8 10 10 9 10 8 10 11 15 17 18 19 20 22 20 19 21 20 20 22 22 23
13 11 8 8 12 12 11 11 11 9 9 9 9 9 9 8 9 8 9 9 9 9 10 13 12 11 11 11 11 12 13 20 20 18 11 17 23 25 25 25 25 26 25
14 11 12 12 11 12 12 12 12 9 10 11 10 10 11 10 10 9 8 9 9 7 9 9 12 12 12 11 11 10 11 12 20 24 28 32 30 28 27 27 29 30 30
17 16 14 12 13 14 13 14 13 12 12 12 11 11 11 11 11 10 9 9 9 9 11 11 10 10 11 11 5 8 11 11 12 17 20 21 24 25 29 31 32 32 32
17 13 8 10 12 13 12 14 13 11 12 12 12 11 12 11 7 7 8 10 9 10 11 12 12 11 11 8 10 11 13 12 14 13 13 13 13 13 19 22 26 31 34
16 12 12 12 14 11 12 12 12 12 12 12 11 12 10 6 9 10 10 11 11 11 11 11 12 12 12 12 12 11 12 13 15 13 13 15 14 15 15 22 26 27 29
15 13 11 13 14 14 10 14 15 13 11 10 8 8 9 7 8 9 11 12 12 15 15 10 12 13 13 13 13 10 13 14 15 14 14 16 14 16 16 22 23 21 23
17 14 13 12 13 12 12 13 10 11 10 7 3 1 6 10 12 10 8 11 11 11 10 10 10 12 12 12 13 13 14 15 14 13 14 16 13 16 16 16 30 31 32
14 12 11 13 11 15 11 16 15 12 9 7 4 4 3 5 9 3 9 10 11 11 8 12 12 15 19 20 18 10 11 10 12 14 14 13 15 16 18 18 18 33 34
12 12 12 11 10 14 14 15 14 8 9 6 5 6 9 7 5 8 9 10 10 10 9 11 12 13 18 15 22 13 9 10 12 15 13 14 16 14 11 14 15 14 13
Wind_Direction
241 248 280 272 286 271 274 308 312 324 322 292 303 299 303 309 313 304 306 125 207 214 219 215 214 213 212 218 221 213 209 212 214 220 226 225 209 214 223 227 229 229 233
248 262 259 258 297 294 309 315 319 324 299 302 289 298 313 310 321 315 311 188 169 220 219 221 218 213 219 214 217 223 223 218 216 222 224 223 226 226 225 234 241 241 241
246 253 255 279 272 226 250 294 286 289 281 286 283 278 286 243 291 301 289 288 220 183 212 229 224 221 214 219 219 216 214 223 228 221 224 229 231 227 229 235 239 244 242
265 269 256 263 264 269 292 256 264 310 312 313 307 289 312 300 294 282 272 291 276 292 187 200 224 229 227 222 221 220 223 229 220 222 224 228 231 228 229 234 244 236 239
250 258 264 266 258 265 245 269 306 325 320 300 297 286 298 282 292 338 323 290 284 255 276 163 208 241 239 234 231 225 220 224 231 229 224 228 230 230 234 238 239 238 239
256 246 240 253 249 220 243 313 331 341 305 327 317 322 300 291 332 173 83 8 78 1 340 299 236 213 203 262 244 240 240 237 231 233 232 232 234 234 233 236 237 237 238
245 247 256 240 234 235 338 288 310 302 315 9 287 330 149 209 232 80 116 23 55 31 41 17 323 315 152 162 71 56 13 281 240 235 238 237 236 238 236 231 232 236 236
231 235 252 245 209 156 231 308 344 315 293 23 329 280 230 167 191 118 31 40 17 21 58 50 43 37 5 81 89 68 50 43 25 338 267 256 247 245 239 234 232 233 236
242 231 224 251 172 269 281 301 340 333 328 327 348 321 266 11 335 148 180 53 0 33 28 78 52 47 35 54 171 86 39 31 22 359 5 353 329 316 264 243 238 236 236
227 200 201 198 203 268 359 238 313 328 298 328 273 170 344 358 326 205 157 136 140 84 51 80 95 85 44 71 90 66 51 40 25 7 358 331 309 317 300 284 272 248 238
215 204 191 186 197 248 163 271 256 283 290 315 286 318 342 282 41 304 307 86 229 138 136 267 4 358 109 28 75 84 56 45 22 6 353 349 338 311 285 278 270 269 270
195 209 191 184 189 200 210 237 249 233 275 307 303 281 267 293 318 301 289 280 334 268 307 237 244 293 313 324 178 44 333 350 357 351 340 332 327 323 309 286 281 275 271
204 172 193 192 187 199 192 240 232 268 247 278 255 296 273 258 282 298 297 292 297 294 286 284 254 278 267 276 312 315 294 252 285 308 312 311 311 312 313 313 295 282 280
207 160 197 202 211 195 195 193 223 244 227 244 264 280 297 276 271 264 280 301 297 292 249 232 270 301 282 277 308 277 286 209 263 288 291 286 290 292 298 303 299 293 281
188 191 193 200 215 208 201 199 233 225 243 239 252 255 266 281 275 276 274 277 288 294 298 308 298 296 276 292 317 299 287 277 258 282 280 274 274 277 283 290 290 290 285
186 181 192 188 200 208 205 216 234 221 235 252 252 262 262 271 268 254 265 270 267 281 289 298 299 308 290 291 290 292 282 282 271 260 258 268 268 268 273 281 284 282 280
175 179 178 177 201 213 209 221 243 255 230 240 253 257 258 265 269 277 263 269 271 281 285 291 303 299 301 266 282 284 286 287 282 250 243 251 259 266 268 272 274 276 277
178 176 198 167 194 212 221 219 232 242 235 243 249 250 257 256 251 256 269 265 281 291 284 292 297 294 287 291 281 287 290 293 289 284 258 255 258 259 261 260 262 266 268
175 180 182 191 209 205 213 218 225 231 236 243 239 244 254 257 260 269 284 286 275 253 261 269 285 291 297 290 280 277 272 282 277 263 246 245 247 250 253 253 253 254 255
183 198 201 183 194 198 209 219 215 221 230 238 241 241 249 254 259 268 266 271 272 274 273 277 276 280 284 287 248 268 278 292 298 299 293 273 266 258 246 245 247 247 245
189 206 195 195 202 214 211 216 222 220 236 240 246 248 243 248 268 282 278 283 301 282 288 294 298 292 274 310 308 303 298 302 294 286 291 291 288 280 278 257 252 244 241
193 194 189 205 216 217 204 196 212 222 229 242 251 262 263 241 238 235 243 255 271 274 278 281 287 294 293 290 291 300 306 295 295 294 295 289 288 282 282 282 283 272 272
202 210 203 215 222 228 202 193 203 225 235 251 265 280 287 272 266 265 223 223 237 235 236 271 279 281 292 290 304 300 287 291 285 293 293 284 282 285 282 282 277 280 265
211 213 212 227 240 238 197 206 183 221 222 227 156 7 318 300 286 259 259 269 272 274 248 241 269 286 289 297 297 292 290 288 284 275 267 270 271 279 296 294 287 278 270
211 212 220 229 235 241 175 168 179 208 204 203 188 194 211 289 306 207 261 271 279 281 265 215 237 256 259 260 260 285 283 282 285 293 290 287 304 300 299 293 288 277 268
214 218 212 218 222 240 171 174 190 204 202 200 188 187 184 210 248 212 257 269 273 279 292 303 291 263 245 254 236 238 256 266 279 287 302 309 306 311 302 293 284 291 281